TimePDT,TemperatureF,Dew PointF,Humidity,Sea Level PressureIn,VisibilityMPH,Wind Direction,Wind SpeedMPH,Gust SpeedMPH,PrecipitationIn,Events,Conditions,WindDirDegrees,DateUTC
12:15 AM,37.4,32.0,81,30.15,10.0,Calm,Calm,-,N/A,,Clear,0,2012-10-07 07:15:00
12:35 AM,30.2,26.6,86,30.15,10.0,SSW,4.6,-,N/A,,Clear,200,2012-10-07 07:35:00
12:55 AM,32.0,28.4,87,30.15,10.0,ESE,3.5,-,N/A,,Clear,110,2012-10-07 07:55:00
1:15 AM,35.6,32.0,87,30.15,10.0,Calm,Calm,-,N/A,,Clear,0,2012-10-07 08:15:00
1:35 AM,35.6,32.0,87,30.15,10.0,Calm,Calm,-,N/A,,Clear,0,2012-10-07 08:35:00
1:55 AM,33.8,32.0,93,30.16,10.0,Calm,Calm,-,N/A,,Clear,0,2012-10-07 08:55:00
2:15 AM,32.0,30.2,93,30.16,10.0,Calm,Calm,-,N/A,,Clear,0,2012-10-07 09:15:00
2:35 AM,32.0,32.0,100,30.16,10.0,Calm,Calm,-,N/A,,Clear,0,2012-10-07 09:35:00
2:55 AM,32.0,32.0,100,30.15,10.0,Calm,Calm,-,N/A,,Clear,0,2012-10-07 09:55:00
3:15 AM,32.0,32.0,100,30.15,10.0,Calm,Calm,-,N/A,,Clear,0,2012-10-07 10:15:00
3:35 AM,30.2,28.4,93,30.15,8.0,Calm,Calm,-,N/A,,Clear,0,2012-10-07 10:35:00
3:55 AM,28.4,28.4,100,30.15,0.8,Calm,Calm,-,N/A,,Mist,0,2012-10-07 10:55:00
4:15 AM,28.4,28.4,100,30.15,0.8,ESE,3.5,-,N/A,,Mist,110,2012-10-07 11:15:00
4:35 AM,28.4,28.4,100,30.15,0.2,Calm,Calm,-,N/A,Fog,Light Freezing Fog,0,2012-10-07 11:35:00
4:55 AM,28.4,26.6,93,30.15,0.8,Calm,Calm,-,N/A,,Mist,0,2012-10-07 11:55:00
5:15 AM,28.4,28.4,100,30.15,0.2,Calm,Calm,-,N/A,Fog,Light Freezing Fog,0,2012-10-07 12:15:00
5:35 AM,28.4,26.6,93,30.15,0.2,Calm,Calm,-,N/A,Fog,Light Freezing Fog,0,2012-10-07 12:35:00
5:55 AM,26.6,24.8,93,30.15,5.0,Calm,Calm,-,N/A,,Clear,0,2012-10-07 12:55:00
6:15 AM,26.6,24.8,93,30.16,2.0,Calm,Calm,-,N/A,,Clear,0,2012-10-07 13:15:00
6:35 AM,26.6,24.8,93,30.17,0.2,Calm,Calm,-,N/A,Fog,Light Freezing Fog,0,2012-10-07 13:35:00
6:45 AM,28.4,26.6,93,30.17,10.0,Calm,Calm,-,N/A,,Clear,0,2012-10-07 13:45:00
7:55 AM,26.6,24.8,93,30.18,10.0,Calm,Calm,-,N/A,Fog,Fog,0,2012-10-07 14:55:00
8:50 AM,35.6,30.2,81,30.18,10.0,Calm,Calm,-,N/A,,Clear,0,2012-10-07 15:50:00
9:45 AM,44.6,30.2,57,30.17,10.0,Calm,Calm,-,N/A,,Clear,0,2012-10-07 16:45:00
10:45 AM,53.6,19.4,26,30.16,10.0,Calm,Calm,-,N/A,,Clear,0,2012-10-07 17:45:00
11:45 AM,60.8,23.0,23,30.13,10.0,NNE,6.9,-,N/A,,Clear,30,2012-10-07 18:45:00
12:45 PM,62.6,23.0,22,30.12,10.0,NNE,5.8,-,N/A,,Clear,20,2012-10-07 19:45:00
1:55 PM,66.2,17.6,15,30.09,10.0,South,3.5,-,N/A,,Partly Cloudy,190,2012-10-07 20:55:00
2:45 PM,68.0,17.6,15,30.07,10.0,ESE,6.9,-,N/A,,Partly Cloudy,110,2012-10-07 21:45:00
3:50 PM,68.0,19.4,16,30.06,10.0,South,5.8,-,N/A,,Partly Cloudy,180,2012-10-07 22:50:00
4:50 PM,66.2,35.6,32,30.06,10.0,WNW,9.2,-,N/A,,Scattered Clouds,300,2012-10-07 23:50:00
5:50 PM,62.6,39.2,42,30.07,10.0,West,10.4,-,N/A,,Scattered Clouds,280,2012-10-08 00:50:00
5:55 PM,62.6,39.2,42,30.07,10.0,West,11.5,-,N/A,,Mostly Cloudy,270,2012-10-08 00:55:00
6:15 PM,60.8,39.2,45,30.07,10.0,West,12.7,18.4,N/A,,Mostly Cloudy,270,2012-10-08 01:15:00
6:35 PM,59.0,39.2,48,30.08,10.0,West,10.4,17.3,N/A,,Mostly Cloudy,270,2012-10-08 01:35:00
6:55 PM,57.2,39.2,51,30.08,10.0,West,9.2,-,N/A,,Scattered Clouds,260,2012-10-08 01:55:00
7:15 PM,57.2,41.0,55,30.09,10.0,West,10.4,-,N/A,,Clear,260,2012-10-08 02:15:00
7:35 PM,55.4,41.0,58,30.09,10.0,West,9.2,-,N/A,,Clear,260,2012-10-08 02:35:00
7:55 PM,53.6,39.2,58,30.10,10.0,SE,6.9,-,N/A,,Scattered Clouds,140,2012-10-08 02:55:00
8:15 PM,50.0,37.4,62,30.10,10.0,South,3.5,-,N/A,,Partly Cloudy,170,2012-10-08 03:15:00
8:35 PM,48.2,37.4,66,30.11,10.0,Calm,Calm,-,N/A,,Clear,0,2012-10-08 03:35:00
8:55 PM,48.2,37.4,66,30.11,10.0,South,3.5,-,N/A,,Clear,180,2012-10-08 03:55:00
9:15 PM,48.2,37.4,66,30.11,10.0,Calm,Calm,-,N/A,,Partly Cloudy,0,2012-10-08 04:15:00
9:35 PM,44.6,35.6,71,30.11,10.0,Calm,Calm,-,N/A,,Clear,0,2012-10-08 04:35:00
9:55 PM,46.4,37.4,71,30.11,10.0,SSE,3.5,-,N/A,,Clear,150,2012-10-08 04:55:00
10:15 PM,44.6,35.6,71,30.11,10.0,Calm,Calm,-,N/A,,Clear,0,2012-10-08 05:15:00
10:35 PM,41.0,33.8,76,30.11,10.0,SE,4.6,-,N/A,,Clear,130,2012-10-08 05:35:00
10:55 PM,42.8,35.6,76,30.11,10.0,Calm,Calm,-,N/A,,Clear,0,2012-10-08 05:55:00
11:15 PM,41.0,37.4,87,30.12,10.0,Calm,Calm,-,N/A,,Clear,0,2012-10-08 06:15:00
11:35 PM,41.0,35.6,81,30.12,10.0,SE,3.5,-,N/A,,Clear,140,2012-10-08 06:35:00
11:55 PM,39.2,35.6,87,30.12,10.0,Calm,Calm,-,N/A,,Clear,0,2012-10-08 06:55:00